Location: Recife
(8.0585°S, 34.8848°W)
Time: 10:04:35
(UTC-03:00)

Explorer 7 - Pass Details

Date: 18 April 2026
Orbit: 427 x 536 km, 50.2° (Epoch: 14 May)

Event Time Altitude Azimuth Distance (km) Brightness Sun altitude
Rises 12:16:58 0° 246° (WSW) 2,548 10.3 66.1°
Reaches altitude 10° 12:19:49 10° 269° (W) 1,688 9.7 65.7°
Maximum altitude 12:22:08 15° 307° (NW) 1,397 9.5 65.3°
Drops below altitude 10° 12:24:30 10° 344° (NNW) 1,719 9.9 64.9°
Sets 12:27:27 0° 7° (N) 2,621 10.5 64.4°
